Disclaimer

Please do not use the information listed here in-flight or in-navigation, as they are not provided to us by the airports but are provided by volunteers, so they might be outdated.

Search


Regions


Airport information page

No radio frequency information is available.

Airport informations:
Latitude: 38° 36' 24.93" N
Longitude: 039° 17' 29.10" E
Elevation: 2927 feet - 892 meters
Operating hours: Remarks
Operating agency: Military-civil joint use airport
Timezone: UTC+2(+3DT) - Dates notified by NOTAM
Fuel: 115/145 octane gasoline, leaded, MIL-L-5572F (PURPLE)

Runway information:
13/31 - 5643 x 105 feet< - >1720 x 32 meters

Recent METARs:
LTCA 171350Z 30015KT 9999 BKN035 BKN100 02/M06 Q1010 NOSIG
LTCA 171350Z 30015KT 9999 BKN035 BKN100 02/M06 Q1010 NOSIG
LTCA 171450Z 29016KT 9999 BKN035 BKN100 01/M06 Q1011 NOSIG

Airport on the map: